Location: Greenwich
(51.4790°N, 0.0090°E)
Time: 05:00:48
(UTC+01:00)

Tiangong - Pass Details

Date: 02 October 2021
Orbit: 382 x 385 km, 41.5° (Epoch: 18 October)

Event Time Altitude Azimuth Distance (km) Brightness Sun altitude
Exits shadow 05:29:38 13° 191° (S) 1,216 3.3 -15.2°
Maximum altitude 05:30:13 14° 179° (S) 1,191 3.4 -15.1°
Drops below altitude 10° 05:31:55 10° 146° (SE) 1,395 4.2 -14.8°
Sets 05:34:42 0° 119° (ESE) 2,247 5.7 -14.4°
